Weather Roundup
Issued by NWS Springfield, MO

Home | Current Version | Previous Version | Text Only | Print | Product List | Glossary On
Versions: 1 2 3 4 5 6 7 8 9 10 11 12 13 14 15 16 17 18 19 20 21 22 23 24 25 26 27 28 29 30 31 32 33 34 35 36 37 38 39 40 41 42 43 44 45 46 47 48 49 50
031
NZUS99 KSGF 220057
HRRSGF

HOURLY WEATHER
NATIONAL WEATHER SERVICE SPRINGFIELD MO
700 PM CST TUE NOV 21 2017

......SGF CWA......

CITY           SKY/WX    TMP DP  RH WIND       PRES   REMARKS
SPRINGFIELD    CLEAR     43  27  53 N12       30.19R
JOPLIN         CLEAR     43  22  43 N13       30.25R
WEST PLAINS    CLEAR     49  32  52 N14G22    30.15R
ROLLA          PTCLDY    38  22  52 N8        30.19R WCI  32

......SURROUNDING SGF CWA......

CITY           SKY/WX    TMP DP  RH WIND       PRES   REMARKS
CHANUTE        CLEAR     40  14  34 N13       30.31R WCI  32
PARSONS        CLEAR     41  12  30 N12G23    30.30R
COFFEYVILLE    CLEAR     44  10  25 N15       30.30R
EMPORIA        CLEAR     33  14  45 N14G21    30.33R WCI  23
HARRISON AR    CLEAR     49  34  56 N9        30.16R

......KANSAS AND MISSOURI......

CITY           SKY/WX    TMP DP  RH WIND       PRES   REMARKS
KANSAS CTY INT CLEAR     31  17  56 N12       30.32R WCI  22
SEDALIA        CLEAR     37  22  54 N12       30.29R WCI  29
ST JOSEPH      CLEAR     30  15  53 N12       30.35R WCI  20
ST LOUIS       PTCLDY    40  22  48 N10G22    30.20R WCI  33
WICHITA        CLEAR     41   6  23 N15       30.33R
TOPEKA         CLEAR     32  17  54 N8        30.36R WCI  25
OLATHE         CLEAR     33  17  51 N10       30.32R WCI  25

......TENNESSEE......

CITY           SKY/WX    TMP DP  RH WIND       PRES   REMARKS
MEMPHIS        NOT AVBL
NASHVILLE      CLOUDY    48  30  49 CALM      30.06R

......ARKANSAS.......

CITY           SKY/WX    TMP DP  RH WIND       PRES   REMARKS
FAYETTEVILLE   CLEAR     50  35  56 N6        30.17R
FT SMITH       CLEAR     56  37  49 N10       30.14R
LITTLE ROCK    PTCLDY    52  47  83 CALM      30.08R

......OKLAHOMA.......

CITY           SKY/WX    TMP DP  RH WIND       PRES   REMARKS
TULSA          CLEAR     50  23  34 N14       30.26R
PONCA CITY     PTCLDY    43  15  32 N9        30.31R
MCALESTER      PTCLDY    56  35  45 N13       30.17R
OKLAHOMA CITY  CLEAR     51  27  39 N23G29    30.25R

......IOWA............

CITY           SKY/WX    TMP DP  RH WIND       PRES   REMARKS
DES MOINES     NOT AVBL
QUAD CITIES    CLEAR     30  17  58 NW14      30.21R WCI  19

......ILLINOIS........

CITY           SKY/WX    TMP DP  RH WIND       PRES   REMARKS
QUINCY         NOT AVBL
CHICAGO        MOCLDY    32  16  51 N16       30.13R WCI  21




USA.gov is the U.S. government's official web portal to all federal, state and local government web resources and services.